Location: Ulm
(48.3980°N, 9.9777°E)
Time: 15:59:40
(UTC+01:00)

Tiangong 2 - Visible Passes

Search period start: 22 November 2017 00:00
Search period end: 02 December 2017 00:00
Orbit: 386 x 392 km, 42.8° (Epoch: 22 November)

Date Brightness Start Highest point End Pass type
(mag) Time Alt. Az. Time Alt. Az. Time Alt. Az.
27 Nov 4.0 06:50:09 10° SSW 06:52:09 15° SSE 06:54:09 10° ESE visible
28 Nov 4.2 05:53:16 10° S 05:54:11 11° SSE 05:55:06 10° SE visible
29 Nov 3.5 06:29:48 10° SW 06:32:17 21° SSE 06:34:46 10° ESE visible
30 Nov 3.6 05:33:28 15° S 05:34:15 16° SSE 05:36:19 10° ESE visible
30 Nov 2.9 07:07:42 10° WSW 07:10:31 29° S 07:13:21 10° ESE visible
01 Dec 2.9 06:10:32 15° SW 06:12:25 26° S 06:15:09 10° ESE visible
